Home > Weather > Accra > Past weeks

Flag for Ghana Past Weather in Accra, Ghana — Yesterday and Last 2 Weeks

Now
79 °F

More clouds than sun.


Feels Like: 82 °F
Forecast: N/A
Wind: 13 mph from South

Location: Accra Airport

Current Time: Jul 28, 2016 at 4:43:09 PM

Latest Report: Jul 28, 2016 at 4:00 PM


Visibility: N/A

Pressure: 29.89 "Hg

Humidity: 84%

Dew Point: 73 °F

Location of AccraLocation

Past Weather in Accra — Graph

°F

Accra Temperature Yesterday

Maximum temperature yesterday: 81 °F (at 2:00 PM)
Minimum temperature yesterday: 75 °F (at 12:00 AM)
Average temperature yesterday: 77 °F

High & Low Weather Summary for the Past Weeks

 TemperatureHumidityPressure
High84 °F (Jul 14, 1:00 PM)100% (Jul 19, 6:00 PM)30.01 "Hg (Jul 19, 6:00 PM)
Low73 °F (Jul 19, 6:00 PM)66% (Jul 13, 4:00 PM)29.83 "Hg (Jul 16, 3:00 PM)
Average77 °F87%29.93 "Hg
* Reported Jul 13 4:00 PM — Jul 28 3:00 PM, Accra, Weather by CustomWeather, © 2016

Note: Actual official high and low records may vary slightly from our data, if they occured in-between our weather recording intervals... More about our weather records

Advertising

Accra Weather History for the Previous 24 Hours

Scroll right to see more
 ConditionsComfort  
Time TempWeatherWind HumidityBarometerVisibility
3:00 PM
Thu, Jul 28
79 °FOvercast.14 mph84%29.92 "HgN/A
2:00 PM79 °FPartly sunny.15 mph84%29.92 "HgN/A
1:00 PM81 °FPartly sunny.14 mph79%29.95 "HgN/A
12:00 PM81 °FPartly sunny.12 mph84%29.98 "HgN/A
11:00 AM81 °FCloudy.12 mph79%29.98 "HgN/A
10:00 AM81 °FBroken clouds.13 mph84%29.98 "HgN/A
9:00 AM79 °FScattered clouds.10 mph89%29.98 "HgN/A
8:00 AM75 °FBroken clouds.9 mph100%29.95 "Hg5 mi
7:00 AM75 °FMore clouds than sun.8 mph94%29.95 "Hg5 mi
6:00 AM75 °FPartly sunny.8 mph94%29.95 "HgN/A
5:00 AM73 °FMostly cloudy.9 mph100%29.92 "HgN/A
4:00 AM73 °FLight rain. Mostly cloudy.12 mph100%29.92 "Hg5 mi
3:00 AM73 °FRain. Passing clouds.8 mph100%29.92 "Hg5 mi
2:00 AM73 °FDrizzle. Low clouds.8 mph100%29.92 "Hg5 mi
1:00 AM75 °FLow clouds.12 mph94%29.95 "HgN/A
12:00 AM75 °FMostly cloudy.12 mph94%29.95 "HgN/A
11:00 PM
Wed, Jul 27
77 °FPassing clouds.10 mph89%29.98 "HgN/A
10:00 PM77 °FPassing clouds.12 mph89%29.98 "HgN/A
9:00 PM77 °FMostly cloudy.9 mph94%29.95 "HgN/A
8:00 PM77 °FPassing clouds.10 mph89%29.92 "HgN/A
7:00 PM77 °FLow clouds.12 mph89%29.89 "HgN/A
6:00 PM79 °FPartly sunny.13 mph84%29.89 "HgN/A
5:00 PM79 °FPartly sunny.13 mph84%29.86 "HgN/A
4:00 PM81 °FScattered clouds.16 mph79%29.86 "HgN/A
Weather by CustomWeather, © 2016

See weather overviewHow to use our weather pages